Fort Indiantown Gap, PA

3:25 AM EDT on October 20, 2017 (GMT -0400)
Muir Army Air Field

Weather History for KMUI - July, 2013

Change the Weather History Date:

Wednesday, July 3, 2013

  Actual Average Record
Temperature  
Mean Temperature 77 °F -  
Max Temperature 83 °F 81 °F 93 °F (2002)
Min Temperature 71 °F 66 °F 48 °F (2007)
Cooling Degree Days 12    
Growing Degree Days 27 (Base 50)    
Moisture  
Dew Point 72 °F    
Average Humidity 91    
Maximum Humidity 100    
Minimum Humidity 66    
Precipitation  
Precipitation 0.03 in - - ()
Sea Level Pressure  
Sea Level Pressure 30.21 in    
Wind  
Wind Speed 4 mph (South)    
Max Wind Speed 10 mph    
Max Gust Speed -    
Visibility 10 miles    
Events Rain    
Averages and records for this station are not official NWS values.
T = Trace of Precipitation, MM = Missing Value Source: NWS Daily Summary

Daily Weather History Graph

Daily Weather History Graph

Search for Another Location

Airport or City:

Trip Planner

Search our weather history database for the weather conditions in past years. The results will help you decide how hot, cold, wet, or windy it might be!

Date:

Astronomy

Jul. 03, 2013 Rise Set
Actual Time 5:40 AM EDT 8:40 PM EDT
Civil Twilight 5:08 AM EDT 9:12 PM EDT
Nautical Twilight 4:26 AM EDT 9:54 PM EDT
Astronomical Twilight 3:37 AM EDT 10:43 PM EDT
Moon 2:17 AM EDT (7/3) 4:48 PM EDT (7/3)
Length of Visible Light 16h 04m
Length of Day
14h 59m
Waning Crescent, 18% of the Moon is Illuminated
Jul 3
Waning Crescent
Jul 8
New
Jul 15
First Quarter
Jul 22
Full
Jul 29
Last Quarter

Hourly Weather History & Observations

Time (EDT) Temp. Heat Index Dew Point Humidity Pressure Visibility Wind Dir Wind Speed Gust Speed Precip Events Conditions
12:08 AM 73.4 °F - 71.6 °F 94% 30.17 in 10.0 mi South 4.6 mph - N/A   Overcast
12:52 AM 75.2 °F - 71.6 °F 89% 30.18 in 10.0 mi South 6.9 mph - N/A   Mostly Cloudy
12:58 AM 73.4 °F - 71.6 °F 94% 30.18 in 10.0 mi SSW 5.8 mph - N/A   Overcast
1:58 AM 73.8 °F - 71.4 °F 92% 30.18 in 10.0 mi South 3.5 mph - N/A   Overcast
2:04 AM 73.4 °F - 71.6 °F 94% 30.18 in 10.0 mi SSW 5.8 mph - N/A   Light Drizzle
2:15 AM 73.4 °F - 71.6 °F 94% 30.18 in 10.0 mi SSW 3.5 mph - N/A   Overcast
2:58 AM 73.0 °F - 71.6 °F 95% 30.17 in 10.0 mi South 4.6 mph - 0.00 in   Mostly Cloudy
3:18 AM 73.4 °F - 71.6 °F 94% 30.17 in 8.0 mi South 4.6 mph - N/A   Mostly Cloudy
3:20 AM 73.4 °F - 71.6 °F 94% 30.17 in 8.0 mi South 4.6 mph - N/A   Mostly Cloudy
3:42 AM 73.4 °F - 71.6 °F 94% 30.17 in 10.0 mi SSE 3.5 mph - N/A   Mostly Cloudy
3:44 AM 73.4 °F - 71.6 °F 94% 30.17 in 10.0 mi Variable 2.3 mph - N/A   Mostly Cloudy
3:58 AM 72.7 °F - 72.0 °F 98% 30.17 in 10.0 mi SE 3.5 mph - N/A   Mostly Cloudy
4:06 AM 73.4 °F - 71.6 °F 94% 30.17 in 10.0 mi SE 2.3 mph - N/A   Overcast
4:16 AM 73.4 °F - 71.6 °F 94% 30.18 in 10.0 mi ENE 1.2 mph - N/A   Overcast
4:18 AM 73.4 °F - 71.6 °F 94% 30.18 in 10.0 mi Calm Calm - N/A   Overcast
4:20 AM 73.4 °F - 71.6 °F 94% 30.18 in 10.0 mi Calm Calm - N/A   Overcast
4:25 AM 73.4 °F - 71.6 °F 94% 30.18 in 10.0 mi ESE 1.2 mph - N/A   Light Drizzle
4:47 AM 71.6 °F - 71.6 °F 100% 30.18 in 10.0 mi Calm Calm - N/A   Overcast
4:58 AM 72.1 °F - 72.0 °F 99% 30.19 in 10.0 mi Calm Calm - 0.00 in   Overcast
5:58 AM 72.3 °F - 72.0 °F 99% 30.21 in 10.0 mi SSE 2.3 mph - N/A   Overcast
6:16 AM 71.6 °F - 71.6 °F 100% 30.21 in 8.0 mi South 2.3 mph - N/A   Light Drizzle
6:27 AM 71.6 °F - 71.6 °F 100% 30.21 in 7.0 mi ENE 1.2 mph - N/A   Mostly Cloudy
6:31 AM 71.6 °F - 71.6 °F 100% 30.21 in 6.0 mi Calm Calm - N/A   Light Drizzle
6:39 AM 71.6 °F - 71.6 °F 100% 30.21 in 3.0 mi Calm Calm - N/A Rain Light Rain
6:41 AM 71.6 °F - 71.6 °F 100% 30.21 in 3.0 mi Calm Calm - N/A Rain Light Rain
6:54 AM 71.6 °F - 71.6 °F 100% 30.21 in 10.0 mi Calm Calm - N/A   Overcast
6:58 AM 72.1 °F - 72.0 °F 99% 30.21 in 10.0 mi Calm Calm - 0.02 in   Overcast
7:03 AM 71.6 °F - 71.6 °F 100% 30.21 in 10.0 mi Calm Calm - N/A Rain Light Rain
7:11 AM 71.6 °F - 71.6 °F 100% 30.22 in 10.0 mi Calm Calm - N/A   Overcast
7:55 AM 73.4 °F - 73.4 °F 100% 30.23 in 10.0 mi Calm Calm - N/A   Overcast
7:56 AM 73.4 °F - 73.4 °F 100% 30.23 in 10.0 mi Calm Calm - N/A Rain Light Rain
7:58 AM 73.4 °F - 73.4 °F 100% 30.23 in 10.0 mi ENE 1.2 mph - 0.00 in Rain Light Rain
8:20 AM 73.4 °F - 73.4 °F 100% 30.23 in 10.0 mi SSE 2.3 mph - N/A   Overcast
8:24 AM 73.4 °F - 73.4 °F 100% 30.23 in 10.0 mi Variable 1.2 mph - N/A   Overcast
8:28 AM 73.4 °F - 73.4 °F 100% 30.23 in 10.0 mi SSE 3.5 mph - N/A   Overcast
8:29 AM 73.4 °F - 73.4 °F 100% 30.23 in 10.0 mi South 3.5 mph - N/A   Mostly Cloudy
8:58 AM 75.0 °F - 73.4 °F 95% 30.23 in 10.0 mi South 3.5 mph - 0.00 in   Mostly Cloudy
9:06 AM 75.2 °F - 73.4 °F 94% 30.23 in 10.0 mi South 3.5 mph - N/A   Mostly Cloudy
9:58 AM 75.7 °F - 72.1 °F 89% 30.23 in 10.0 mi SSW 9.2 mph - 0.01 in   Overcast
10:46 AM 77.0 °F - 71.6 °F 83% 30.25 in 10.0 mi South 6.9 mph - N/A   Mostly Cloudy
10:48 AM 77.0 °F - 71.6 °F 83% 30.24 in 10.0 mi South 6.9 mph - N/A   Mostly Cloudy
10:52 AM 77.0 °F - 71.6 °F 83% 30.24 in 10.0 mi Variable 4.6 mph - N/A   Mostly Cloudy
10:58 AM 77.0 °F - 71.8 °F 84% 30.24 in 10.0 mi South 5.8 mph - N/A   Mostly Cloudy
11:02 AM 77.0 °F - 71.6 °F 83% 30.24 in 10.0 mi South 9.2 mph - N/A   Mostly Cloudy
11:12 AM 77.0 °F - 71.6 °F 83% 30.24 in 10.0 mi South 9.2 mph - N/A   Overcast
11:14 AM 77.0 °F - 71.6 °F 83% 30.24 in 10.0 mi South 8.1 mph - N/A   Overcast
11:16 AM 77.0 °F - 71.6 °F 83% 30.24 in 10.0 mi South 6.9 mph - N/A   Overcast
11:44 AM 77.0 °F - 71.6 °F 83% 30.24 in 10.0 mi SSW 8.1 mph - N/A   Mostly Cloudy
11:58 AM 77.2 °F - 71.8 °F 83% 30.24 in 10.0 mi South 6.9 mph - N/A   Mostly Cloudy
12:24 PM 77.0 °F - 73.4 °F 89% 30.24 in 10.0 mi Variable 4.6 mph - N/A   Light Drizzle
12:40 PM 77.0 °F - 73.4 °F 89% 30.23 in 10.0 mi SSW 5.8 mph - N/A Rain Light Rain
12:41 PM 77.0 °F - 73.4 °F 89% 30.23 in 10.0 mi SSW 6.9 mph - N/A   Mostly Cloudy
12:43 PM 77.0 °F - 73.4 °F 89% 30.23 in 10.0 mi SSW 6.9 mph - N/A   Mostly Cloudy
12:49 PM 77.0 °F - 71.6 °F 83% 30.23 in 10.0 mi SSW 9.2 mph - N/A   Mostly Cloudy
12:57 PM 77.0 °F - 71.6 °F 83% 30.23 in 10.0 mi SSW 8.1 mph - N/A   Mostly Cloudy
12:58 PM 77.0 °F - 71.6 °F 83% 30.23 in 10.0 mi SSW 6.9 mph - 0.00 in   Mostly Cloudy
1:00 PM 77.0 °F - 71.6 °F 83% 30.23 in 10.0 mi SSW 5.8 mph - N/A   Mostly Cloudy
1:12 PM 77.0 °F - 73.4 °F 89% 30.23 in 10.0 mi South 8.1 mph - N/A   Mostly Cloudy
1:18 PM 77.0 °F - 73.4 °F 89% 30.22 in 10.0 mi SSW 8.1 mph - N/A   Overcast
1:20 PM 77.0 °F - 73.4 °F 89% 30.22 in 10.0 mi SSW 9.2 mph - N/A   Overcast
1:24 PM 77.0 °F - 73.4 °F 89% 30.22 in 10.0 mi South 9.2 mph - N/A   Mostly Cloudy
1:34 PM 77.0 °F - 73.4 °F 89% 30.22 in 10.0 mi South 8.1 mph - N/A   Overcast
1:46 PM 78.8 °F - 73.4 °F 83% 30.22 in 10.0 mi South 6.9 mph - N/A   Mostly Cloudy
1:56 PM 78.8 °F - 73.4 °F 83% 30.22 in 10.0 mi South 8.1 mph - N/A   Mostly Cloudy
1:58 PM 78.8 °F - 73.4 °F 83% 30.22 in 10.0 mi SSW 10.4 mph - N/A   Mostly Cloudy
2:58 PM 78.6 °F - 71.8 °F 79% 30.21 in 10.0 mi South 9.2 mph - N/A   Mostly Cloudy
3:58 PM 82.2 °F 86.9 °F 71.6 °F 70% 30.20 in 10.0 mi South 9.2 mph - N/A   Partly Cloudy
4:58 PM 81.7 °F 85.6 °F 70.7 °F 69% 30.20 in 10.0 mi South 6.9 mph - N/A   Partly Cloudy
5:58 PM 83.5 °F 88.2 °F 71.2 °F 66% 30.19 in 10.0 mi SSW 4.6 mph - N/A   Scattered Clouds
6:58 PM 82.4 °F 87.2 °F 71.6 °F 70% 30.19 in 10.0 mi South 5.8 mph - N/A   Partly Cloudy
7:58 PM 80.8 °F 85.1 °F 72.3 °F 75% 30.20 in 10.0 mi Calm Calm - N/A   Scattered Clouds
8:58 PM 75.2 °F - 75.0 °F 99% 30.20 in 10.0 mi Calm Calm - N/A   Clear
9:58 PM 74.1 °F - 73.9 °F 99% 30.22 in 10.0 mi Calm Calm - N/A   Clear
10:58 PM 73.4 °F - 73.2 °F 99% 30.23 in 10.0 mi Calm Calm - N/A   Partly Cloudy
11:48 PM 73.4 °F - 73.4 °F 100% 30.23 in 10.0 mi Calm Calm - N/A   Mostly Cloudy
11:50 PM 73.4 °F - 73.4 °F 100% 30.23 in 10.0 mi Calm Calm - N/A   Mostly Cloudy
11:52 PM 73.4 °F - 73.4 °F 100% 30.23 in 10.0 mi Calm Calm - N/A   Mostly Cloudy
11:58 PM 73.6 °F - 73.6 °F 100% 30.23 in 10.0 mi Calm Calm - N/A   Mostly Cloudy